Date String (YYYY-MM-DD hh:mm:ss) UTC,Instrument flags,Ambient pressure (hPa),Sample flow (lpm),Bypass flow (lpm),Sample temperature (°C),Ambient temperature (°C),ASC tube jacket temperature (°C),LED temperature (°C),Box temperature (°C),Sample RH (%),Span deviation,Mass concentration (μg/m³),Mass concentration (μg/m³),Mass concentration (μg/m³)
DateTimeUTC,F1_M11,P_M11,Q1_M11,Q2_M11,T1_M11,T2_M11,T3_M11,T4_M11,T5_M11,U1_M11,ZSPAN_M11,X0_M11,X2_M11,X1_M11
2022-07-11 15:00:00,,0835.5,5.01,0.00,30.1,27.8,00.0,39.0,31.8,29.4,-000.1,0019.14,0007.27,0006.16
2022-07-11 15:01:00,,0835.5,5.00,0.00,30.1,27.9,00.0,38.9,31.8,29.5,-000.3,0019.75,0007.24,0006.11
2022-07-11 15:02:00,,0835.6,5.00,0.00,30.1,28.1,00.0,38.9,31.9,29.6,-000.4,0019.56,0007.10,0006.05
2022-07-11 15:03:00,,0835.6,5.00,0.00,30.1,28.2,00.0,38.9,31.9,29.6,-000.3,0019.60,0007.05,0006.00
2022-07-11 15:04:00,,0835.6,4.99,0.00,30.1,28.4,00.0,38.9,31.9,29.8,-000.2,0018.64,0007.02,0005.96
2022-07-11 15:05:00,,0835.6,5.00,0.00,30.1,28.5,00.0,38.9,31.9,30.0,-000.0,0018.07,0007.02,0005.91
2022-07-11 15:06:00,,0835.5,5.00,0.00,30.1,28.6,00.0,38.9,31.9,30.0,-000.3,0018.09,0007.02,0005.87
2022-07-11 15:07:00,,0835.6,5.00,0.00,30.1,28.7,00.0,38.9,32.0,29.8,-000.2,0016.75,0007.00,0005.81
2022-07-11 15:08:00,,0835.5,5.01,0.00,30.1,28.8,00.0,38.9,32.0,29.7,-000.3,0015.85,0006.95,0005.76
2022-07-11 15:09:00,,0835.6,5.00,0.00,30.1,28.8,00.0,38.9,32.0,29.7,-000.3,0015.27,0006.90,0005.69
2022-07-11 15:10:00,,0835.6,5.00,0.00,30.1,28.9,00.0,38.9,32.0,29.8,0000.0,0014.76,0006.89,0005.62
2022-07-11 15:11:00,,0835.6,4.99,0.00,30.1,29.0,00.0,38.9,32.0,29.8,0000.0,0015.18,0006.84,0005.54
2022-07-11 15:12:00,,0835.5,4.99,0.00,30.2,29.0,00.0,38.9,32.1,29.9,-000.7,0015.79,0006.80,0005.45
2022-07-11 15:13:00,,0835.6,5.00,0.00,30.2,29.1,00.0,38.9,32.1,29.9,-000.5,0016.26,0006.75,0005.36
2022-07-11 15:14:00,,0835.6,5.00,0.00,30.2,29.1,00.0,38.9,32.1,30.0,-000.5,0016.54,0006.66,0005.24
2022-07-11 15:15:00,,0835.5,4.99,0.00,30.2,29.1,00.0,38.9,32.1,30.1,-000.0,0016.35,0006.53,0005.08
2022-07-11 15:16:00,,0835.6,5.00,0.00,30.2,29.2,00.0,38.9,32.1,30.2,0000.0,0016.60,0006.35,0004.91
2022-07-11 15:17:00,,0835.6,5.00,0.00,30.2,29.2,00.0,39.0,32.1,30.1,0000.0,0015.91,0006.18,0004.75
2022-07-11 15:18:00,,0835.6,5.00,0.00,30.3,29.2,00.0,39.0,32.2,30.1,0000.0,0016.21,0005.96,0004.59
2022-07-11 15:19:00,,0835.6,5.00,0.00,30.3,29.3,00.0,39.0,32.2,30.1,0000.0,0016.26,0005.82,0004.47
2022-07-11 15:20:00,,0835.7,5.01,0.00,30.3,29.3,00.0,39.0,32.2,30.0,0000.0,0017.22,0005.68,0004.34
2022-07-11 15:21:00,,0835.6,5.01,0.00,30.3,29.3,00.0,39.0,32.2,29.9,0000.0,0018.26,0005.48,0004.22
2022-07-11 15:22:00,,0835.7,5.01,0.00,30.3,29.3,00.0,39.0,32.2,29.9,0000.0,0018.25,0005.29,0004.11
2022-07-11 15:23:00,,0835.6,5.00,0.00,30.3,29.4,00.0,39.1,32.2,29.9,0000.0,0017.71,0005.13,0004.02
2022-07-11 15:24:00,,0835.6,4.99,0.00,30.4,29.4,00.0,39.1,32.2,29.9,0000.0,0016.60,0004.99,0003.95
2022-07-11 15:25:00,,0835.6,5.00,0.00,30.4,28.7,00.0,39.0,32.1,29.9,0000.0,0016.22,0004.89,0003.92
2022-07-11 15:26:00,,0835.7,5.01,0.00,30.3,27.7,00.0,38.9,32.0,30.1,0000.0,0016.15,0004.85,0003.90
2022-07-11 15:27:00,,0835.6,4.99,0.00,30.2,27.2,00.0,38.9,31.8,30.7,0000.0,0016.59,0004.84,0003.89
2022-07-11 15:28:00,,0835.7,5.01,0.00,30.1,27.1,00.0,38.9,31.6,30.7,0000.0,0016.25,0004.78,0003.88
2022-07-11 15:29:00,,0835.7,5.00,0.00,30.0,27.2,00.0,38.9,31.5,30.8,0000.0,0015.17,0004.79,0003.87
2022-07-11 15:30:00,,0835.7,5.00,0.00,29.9,27.3,00.0,38.8,31.5,30.7,0000.0,0014.58,0004.80,0003.88
2022-07-11 15:31:00,,0835.7,4.99,0.00,29.9,27.5,00.0,38.8,31.6,30.8,0000.0,0013.80,0004.80,0003.89
2022-07-11 15:32:00,,0835.7,5.00,0.00,29.8,27.7,00.0,38.8,31.6,30.8,0000.0,0013.41,0004.83,0003.91
2022-07-11 15:33:00,,0835.8,5.00,0.00,29.8,27.9,00.0,38.7,31.6,30.8,0000.0,0013.03,0004.85,0003.90
2022-07-11 15:34:00,,0835.8,5.00,0.00,29.8,28.0,00.0,38.7,31.6,30.7,0000.0,0012.45,0004.89,0003.91
2022-07-11 15:35:00,,0835.8,5.01,0.00,29.8,28.2,00.0,38.7,31.7,30.7,0000.0,0012.90,0004.93,0003.93
2022-07-11 15:36:00,,0835.7,5.00,0.00,29.8,28.3,00.0,38.7,31.7,30.7,0000.0,0013.27,0004.97,0003.94
2022-07-11 15:37:00,,0835.8,5.01,0.00,29.9,28.4,00.0,38.7,31.7,30.7,0000.0,0014.38,0005.00,0003.96
2022-07-11 15:38:00,,0835.8,5.01,0.00,29.9,28.5,00.0,38.7,31.7,30.6,0000.0,0013.93,0005.02,0003.98
2022-07-11 15:39:00,,0835.8,5.00,0.00,29.9,28.6,00.0,38.7,31.8,30.5,0000.0,0014.54,0005.07,0004.02
2022-07-11 15:40:00,,0835.8,5.00,0.00,29.9,28.7,00.0,38.7,31.8,30.5,0000.0,0014.97,0005.06,0004.05
2022-07-11 15:41:00,,0835.7,5.00,0.00,29.9,28.7,00.0,38.7,31.8,30.4,0000.0,0014.97,0005.07,0004.07
2022-07-11 15:42:00,,0835.8,5.00,0.00,29.9,28.8,00.0,38.7,31.9,30.4,0000.0,0014.81,0005.05,0004.08
2022-07-11 15:43:00,,0835.7,4.99,0.00,30.0,28.8,00.0,38.7,31.9,30.3,0000.0,0014.42,0005.04,0004.09
2022-07-11 15:44:00,,0835.7,5.00,0.00,30.0,28.9,00.0,38.7,31.9,30.3,0000.0,0014.28,0005.05,0004.12
2022-07-11 15:45:00,,0835.7,5.00,0.00,30.0,28.9,00.0,38.7,31.9,30.1,0000.0,0013.99,0005.05,0004.14
2022-07-11 15:46:00,,0835.6,5.00,0.00,30.0,29.0,00.0,38.8,32.0,30.0,0000.0,0014.19,0005.03,0004.16
2022-07-11 15:47:00,,0835.6,5.00,0.00,30.1,29.0,00.0,38.8,32.0,30.3,0000.0,0013.97,0005.02,0004.16
2022-07-11 15:48:00,,0835.6,5.00,0.00,30.1,29.1,00.0,38.8,32.0,30.4,0000.0,0012.77,0004.98,0004.16
2022-07-11 15:49:00,,0835.6,4.99,0.00,30.1,29.1,00.0,38.8,32.0,30.4,0000.0,0012.38,0004.96,0004.13
2022-07-11 15:50:00,,0835.6,4.99,0.00,30.1,29.1,00.0,38.8,32.0,30.4,0000.0,0012.07,0004.96,0004.11
2022-07-11 15:51:00,,0835.6,4.99,0.00,30.2,29.2,00.0,38.9,32.1,30.2,0000.0,0012.30,0005.01,0004.09
2022-07-11 15:52:00,,0835.6,5.01,0.00,30.2,29.1,00.0,38.9,32.1,30.2,0000.0,0012.26,0005.01,0004.07
2022-07-11 15:53:00,,0835.7,5.00,0.00,30.2,28.3,00.0,38.8,32.0,30.2,0000.0,0012.27,0004.99,0004.05
2022-07-11 15:54:00,,0835.6,5.00,0.00,30.1,27.7,00.0,38.8,31.8,30.4,0000.0,0012.17,0005.02,0004.03
2022-07-11 15:55:00,,0835.6,5.00,0.00,30.0,27.5,00.0,38.8,31.7,30.5,0000.0,0011.73,0005.00,0004.02
2022-07-11 15:56:00,,0835.6,5.00,0.00,29.9,27.6,00.0,38.7,31.6,30.7,0000.0,0012.52,0005.01,0004.00
2022-07-11 15:57:00,,0835.6,4.99,0.00,29.9,27.7,00.0,38.7,31.6,30.8,0000.0,0012.35,0004.97,0003.97
2022-07-11 15:58:00,,0835.6,5.02,0.00,29.9,27.8,00.0,38.7,31.6,30.9,0000.0,0011.68,0004.94,0003.94
2022-07-11 15:59:00,,0835.6,5.00,0.00,29.8,28.0,00.0,38.7,31.6,30.9,0000.0,0012.13,0004.99,0003.94
